Regional Weather Roundup
Issued by NWS

Home | Current Version | Previous Version | Graphics & Text | Print | Product List | Glossary On
Versions: 1 2 3 4 5 6 7 8 9 10 11 12 13 14 15 16 17 18 19 20 21 22 23 24 25 26 27 28 29 30 31 32 33 34 35 36 37 38 39 40 41 42 43 44 45 46 47 48 49 50
267
ASUS45 KCYS 271710
RWRWY

WYOMING REGIONAL WEATHER ROUNDUP
NATIONAL WEATHER SERVICE CHEYENNE WY
1100 AM MDT SAT MAY 27 2017

NOTE:  "FAIR" INDICATES FEW OR NO CLOUDS BELOW 12,000 FEET
WITH NO SIGNIFICANT WEATHER AND/OR OBSTRUCTIONS TO VISIBILITY.

WYZ001-271800-
YELLOWSTONE NATIONAL PARK

CITY           SKY/WX    TMP DP  RH WIND       PRES   REMARKS
LK YELLOWSTONE   N/A     39  34  82 E6        30.29S WCI  35
W YELLOWSTONE  NOT AVBL

$$
WYZ002>013-054>058-071-098>099-271800-
NORTHERN WYOMING

CITY           SKY/WX    TMP DP  RH WIND       PRES   REMARKS
JACKSON        MOSUNNY   48  36  61 S5        30.25S
CODY           FAIR      59  26  28 NW7       30.17R
GREYBULL       FAIR      58  37  45 S5        30.14S
WORLAND        FAIR      57  38  48 CALM      30.15S
SHERIDAN       FAIR      63  38  39 NW15      30.09S
BUFFALO        FAIR      60  33  36 N17G26    30.12R
GILLETTE       FAIR      60  39  45 NW12      30.08S
HULETT         FAIR      59  34  38 W8G18     30.08S
NEWCASTLE      FAIR      57  37  47 NW13G20   30.09F

$$
WYZ014>020-022>026-101>103-271800-
CENTRAL WYOMING

CITY           SKY/WX    TMP DP  RH WIND       PRES   REMARKS
BIG PINEY      FAIR      53  27  36 N13       30.23R
PINEDALE       FAIR      50  28  43 N3        30.23S
DUBOIS         FAIR      46  21  36 NW5       30.22R
LANDER         FAIR      53  31  42 CALM      30.18S
RIVERTON       FAIR      55  32  41 CALM      30.19R
CASPER         FAIR      54  36  50 VRB3      30.15S
DOUGLAS        PTSUNNY   52  39  61 VRB3      30.15R

$$
WYZ021-027>030-104>119-271800-
SOUTHERN WYOMING

CITY           SKY/WX    TMP DP  RH WIND       PRES   REMARKS
EVANSTON       FAIR      48  34  58 NW5       30.26R
KEMMERER         N/A     50  30  46 CALM      30.25S
FORT BRIDGER   FAIR      51  33  49 NW6       30.27S
ROCK SPRINGS   FAIR      50  32  50 VRB5      30.23S
DIXON            N/A     51  36  55 NW13      30.22S
RAWLINS        FAIR      50  33  52 N12       30.20R
SARATOGA       PTSUNNY   45  36  70 N9G20     30.20S
LARAMIE        PTSUNNY   45  35  68 NW13      30.16S
CHEYENNE       PTSUNNY   47  38  71 N13G21    30.14S
TORRINGTON     CLOUDY    57  40  52 N13G20    30.08S
PINE BLUFFS    FAIR      54  41  62 N17       30.12S

$$




USA.gov is the U.S. government's official web portal to all federal, state and local government web resources and services.